Terminal Aerodrome Forecast
Issued by NWS

Home | Current Version | Previous Version | Graphics & Text | Print | Product List | Glossary On
Versions: 1 2 3 4 5 6 7 8 9 10 11 12 13 14 15 16 17 18 19 20 21 22
000
FTUS43 KMPX 240900 AAA
TAFAXN
TAF AMD
KAXN 240954Z 2410/2506 33009KT 6SM BR OVC005
     FM241700 31008KT P6SM OVC012
     FM250000 21007KT P6SM SCT020 BKN100=

USA.gov is the U.S. government's official web portal to all federal, state and local government web resources and services.